GEFSSE_500_meanwind_150.txt.gz
Wind_Speed
5 4 5 4 4 3 2 2 1 1 1 1 0 1 1 2 2 2 1 2 3 4 4 5 5 6 6 6 5 5 5 5 5 6 6 6 7 7 8 8 8 8 8
6 5 5 5 5 4 4 3 3 3 2 2 1 1 1 0 0 0 1 1 2 2 3 3 4 4 4 5 5 5 5 5 5 5 6 6 6 7 8 8 8 8 8
6 7 7 7 7 6 5 4 4 4 4 3 3 2 2 2 1 1 1 1 0 1 1 2 2 3 3 3 3 4 4 4 4 4 5 6 6 6 7 7 7 8 8
7 8 8 8 8 8 7 6 6 5 5 4 4 3 3 3 3 3 2 2 2 2 1 1 1 1 2 2 2 3 3 3 4 4 5 5 5 6 6 7 7 8 7
8 8 9 10 10 10 9 8 7 7 6 6 5 5 4 4 4 4 4 4 3 3 2 2 2 1 1 2 2 2 3 3 4 4 4 4 5 6 6 7 7 7 7
9 9 10 11 11 11 10 9 9 8 8 7 6 6 6 5 5 5 5 6 5 5 4 3 3 3 2 2 1 2 2 2 3 3 4 4 5 5 5 6 6 7 7
10 11 11 12 12 12 12 11 10 10 9 9 8 8 7 7 6 6 6 7 7 6 6 5 5 4 4 3 3 2 2 3 3 3 3 3 4 4 5 5 6 6 6
10 11 12 13 13 13 13 12 11 11 10 10 9 9 9 8 8 8 7 8 8 8 8 7 7 6 6 5 5 4 3 3 3 3 3 2 3 4 4 4 5 6 6
11 11 12 13 14 14 14 14 13 12 11 10 10 10 9 9 9 9 9 9 9 9 10 9 9 8 8 7 6 6 5 4 5 4 4 3 4 4 4 4 4 5 6
12 13 13 14 14 15 15 15 14 13 12 12 11 11 11 10 10 10 10 10 11 11 11 11 11 10 9 8 8 8 7 7 6 6 5 5 4 5 4 4 4 5 5
12 13 13 14 14 15 16 16 15 14 13 12 12 12 12 12 11 11 11 11 12 12 12 12 12 12 11 10 10 10 9 9 8 8 8 7 6 6 5 5 5 5 5
12 12 13 13 14 15 16 17 17 15 15 13 13 14 14 13 13 12 12 12 12 13 13 13 13 13 13 12 12 12 11 11 10 10 10 10 9 8 7 7 7 7 6
11 12 13 14 14 14 16 16 16 16 15 15 15 15 15 14 13 13 12 12 13 13 13 14 14 14 14 13 13 13 13 13 12 12 12 10 10 10 9 8 8 8 8
12 12 12 13 14 15 16 15 15 16 17 16 15 14 14 14 13 12 12 13 12 13 12 13 14 14 14 15 15 15 15 15 14 12 12 12 12 11 11 10 10 10 9
12 12 11 12 12 13 13 14 14 15 15 16 15 14 14 14 12 12 12 12 12 11 11 11 12 13 14 15 15 15 15 16 15 15 15 13 14 13 13 12 12 12 11
11 11 12 11 11 12 12 13 13 13 14 14 14 13 13 12 11 11 11 10 10 10 11 11 12 12 14 14 15 14 14 15 16 16 16 16 16 16 15 15 14 13 13
9 11 12 12 11 11 12 13 12 12 12 13 13 12 11 11 10 10 10 10 10 10 11 11 12 12 12 14 15 16 16 15 16 17 17 18 17 17 16 16 16 16 15
6 9 9 10 10 10 11 12 11 10 10 10 11 11 10 10 9 9 10 10 9 10 10 10 11 11 12 13 13 15 15 16 15 17 18 18 18 18 18 18 18 17 17
6 8 7 7 8 8 9 10 9 9 9 10 10 10 10 10 9 9 9 9 9 10 10 10 10 11 11 12 13 14 15 16 16 16 17 17 18 19 19 20 20 19 19
5 6 6 8 8 8 8 10 9 9 9 8 8 9 9 8 8 8 8 9 9 9 9 9 10 10 11 12 12 13 14 15 15 16 16 17 18 19 19 20 20 21 21
4 5 6 7 7 8 8 9 9 9 8 7 7 7 7 7 7 7 7 8 8 8 8 8 9 10 11 11 12 12 12 13 14 15 16 16 17 18 19 20 21 21 22
4 5 5 6 7 7 7 7 7 8 8 7 6 6 6 6 6 6 6 6 6 7 7 8 9 10 10 10 11 12 12 12 13 14 15 16 17 17 18 19 21 22 22
4 5 5 5 6 6 7 7 7 7 7 7 6 5 5 5 5 5 5 5 5 6 6 7 7 8 9 9 10 11 11 12 12 12 13 14 16 17 18 19 20 22 22
4 5 5 6 6 6 6 7 6 6 7 6 5 5 4 4 4 4 4 4 4 4 4 5 6 6 7 7 8 9 10 10 11 12 13 14 15 16 18 19 19 21 22
4 4 5 6 7 7 6 7 7 7 7 6 5 4 3 2 2 2 2 2 2 2 3 4 4 5 6 6 6 8 9 10 10 11 13 13 14 16 16 18 19 20 21
4 5 6 6 7 7 7 7 7 7 7 6 5 4 3 2 2 1 1 1 1 2 2 3 4 4 5 6 6 7 8 9 10 10 12 13 14 15 15 16 18 20 21

GEFSSE_500_meanwind_156.txt.gz
Wind_Speed
3 3 3 3 3 4 5 5 6 6 6 5 5 5 5 5 5 6 6 6 6 6 6 6 6 6 6 6 5 5 5 5 5 5 5 6 6 7 7 7 8 7 7
5 5 5 4 4 5 5 5 5 5 5 4 5 4 4 4 4 4 5 5 5 5 6 5 5 5 5 5 5 5 5 5 5 5 5 5 6 6 6 7 7 7 7
6 6 6 5 5 5 5 5 5 5 4 4 4 3 3 3 3 3 3 4 4 4 4 4 4 4 4 4 4 4 4 4 4 4 5 5 5 5 6 6 7 7 7
7 7 7 6 6 6 5 5 4 4 4 3 3 2 2 2 2 2 2 2 3 3 3 3 3 3 3 3 3 3 3 3 4 4 4 5 5 5 6 6 6 7 7
7 7 8 8 7 6 6 5 4 4 4 3 3 2 1 1 1 1 1 1 1 2 2 2 2 2 2 2 2 2 2 2 3 3 3 4 4 5 5 5 5 6 6
8 8 9 8 8 7 7 6 5 5 4 4 3 2 1 1 0 0 0 0 0 1 2 2 2 1 1 1 1 1 1 1 1 2 3 3 3 4 4 4 4 5 5
9 9 9 9 8 8 8 7 6 6 5 4 4 3 2 2 2 2 2 2 2 2 2 2 2 2 2 2 1 1 1 0 1 2 2 3 2 3 3 3 4 4 4
10 10 10 10 9 9 9 8 7 6 6 5 5 4 4 4 3 4 4 4 3 3 3 3 3 3 2 2 2 1 1 1 1 1 1 1 1 1 2 2 3 3 4
10 11 11 10 10 10 10 9 9 8 7 6 6 6 6 5 5 5 5 5 5 5 4 4 4 4 3 3 2 2 2 2 2 2 2 2 2 2 1 2 2 3 3
10 11 11 11 10 10 10 10 10 10 8 8 7 7 7 6 6 6 7 7 6 6 5 5 5 5 4 4 4 4 4 3 4 4 4 3 3 3 3 3 3 3 3
10 11 11 11 11 10 10 11 11 11 11 10 9 8 8 7 7 7 7 7 7 7 6 6 6 6 6 5 5 5 5 5 5 5 5 5 5 5 5 5 5 5 4
10 10 11 11 11 11 12 12 12 12 12 11 10 10 10 9 9 8 8 8 8 8 8 7 7 7 7 7 7 7 7 7 7 7 7 6 6 6 6 7 7 6 6
9 9 9 11 11 12 13 13 13 13 13 12 11 11 11 11 10 10 9 10 9 9 9 9 9 9 9 8 8 8 9 9 9 9 8 8 8 7 7 8 9 9 8
9 9 10 10 12 13 14 14 13 14 14 13 13 13 11 12 11 11 11 10 10 10 10 10 10 10 10 10 9 10 10 10 11 11 10 10 9 9 9 9 9 10 9
10 10 11 11 12 12 14 14 14 14 15 14 13 14 13 12 12 12 11 11 10 10 9 9 10 10 10 10 11 11 11 11 11 12 12 12 11 11 11 11 11 12 12
10 11 11 10 12 12 12 14 13 14 14 14 14 14 14 12 11 11 11 10 10 9 9 9 9 9 10 10 11 11 11 11 11 12 13 13 13 13 13 13 13 13 14
10 10 12 12 11 12 12 13 14 14 13 13 13 13 13 12 11 10 10 10 10 9 9 9 9 8 9 9 9 10 11 12 12 13 13 14 14 15 14 15 15 15 15
9 11 12 12 12 12 13 13 13 13 13 13 12 12 11 12 11 10 10 10 10 9 8 8 8 8 9 9 9 10 11 11 12 13 14 14 15 16 16 15 15 16 16
10 11 11 11 11 12 13 13 13 13 13 13 12 12 11 11 11 10 10 10 10 9 8 8 8 8 8 9 10 10 11 12 13 13 14 14 15 16 16 16 16 16 17
10 11 11 11 12 12 12 13 13 13 12 12 11 11 11 10 10 10 10 9 9 9 8 8 8 8 8 9 10 10 11 12 13 14 15 15 16 16 16 17 17 18 18
9 9 11 11 11 12 13 12 12 13 12 11 10 10 10 9 9 10 9 9 8 8 8 8 7 7 8 8 9 10 11 12 13 14 14 15 15 16 17 17 18 18 19
8 9 10 10 11 12 12 12 12 12 11 10 9 9 9 9 8 9 8 7 7 7 7 7 6 7 7 7 8 9 10 11 12 13 13 14 15 16 16 16 17 18 18
8 9 10 10 10 11 11 12 12 11 10 9 8 8 8 7 7 7 7 7 6 6 6 6 6 6 7 7 7 8 9 10 11 11 11 13 14 14 15 15 16 17 18
9 9 10 10 10 11 12 12 12 11 11 10 9 8 7 6 6 6 6 6 6 5 6 6 6 6 7 7 7 8 8 8 8 9 10 11 12 13 14 15 15 16 17
9 9 9 9 10 10 11 11 12 11 11 11 10 8 8 7 6 6 6 5 5 5 5 5 6 6 6 7 7 7 8 8 8 9 9 10 11 12 13 14 15 16 17
9 9 9 9 11 10 10 11 11 11 11 11 10 9 8 7 6 6 6 5 5 4 4 4 5 5 5 6 6 7 7 8 8 9 9 10 11 12 13 13 14 15 17

GEFSSE_500_meanwind_162.txt.gz
Wind_Speed
5 5 5 6 6 7 7 7 8 9 10 10 10 10 10 11 11 10 11 11 11 11 10 9 8 8 8 8 8 8 7 7 7 6 6 6 6 6 6 7 6 6 6
5 6 6 6 6 7 7 8 8 9 9 9 9 9 9 9 10 10 10 10 10 10 10 9 9 8 8 8 7 7 7 6 6 6 6 6 6 6 6 6 6 6 6
6 7 7 6 6 7 7 8 8 8 9 9 9 9 9 9 9 9 9 9 10 9 9 8 8 8 7 7 7 6 6 6 6 6 6 5 5 5 5 5 5 6 5
6 7 7 7 7 7 8 8 9 9 9 9 9 8 8 8 8 8 8 8 8 8 8 7 7 7 6 6 6 5 6 6 6 5 5 5 5 5 5 5 5 5 5
6 8 8 8 8 8 9 9 9 9 9 9 9 8 7 7 7 7 7 7 7 7 6 6 6 5 5 5 5 5 5 5 5 5 5 4 4 4 4 4 4 4 4
7 9 9 9 9 9 9 10 9 9 9 9 9 8 7 7 7 7 7 6 6 6 6 5 5 5 4 4 4 4 4 4 5 5 4 4 4 3 3 3 3 3 3
8 10 9 10 10 9 10 10 10 10 10 10 9 9 8 7 7 7 7 6 5 5 5 4 4 4 4 4 4 4 4 4 4 4 4 4 3 3 3 3 3 3 3
9 10 10 11 10 10 10 10 10 11 11 10 10 9 8 8 7 7 6 6 5 5 4 4 4 4 4 4 4 4 4 4 4 4 4 4 3 3 3 2 3 3 3
9 10 11 11 11 11 10 10 12 12 12 11 11 11 9 8 7 7 6 6 6 5 5 5 4 5 5 5 4 4 4 5 5 5 4 4 4 3 3 3 3 3 3
10 11 11 12 12 12 12 12 12 12 13 12 12 11 10 9 8 7 7 7 7 6 6 5 5 5 5 5 5 5 5 6 6 6 5 5 5 4 4 4 4 4 4
11 12 12 13 12 12 12 13 13 13 13 13 13 12 11 10 9 8 7 7 6 7 7 7 6 6 6 6 6 6 7 7 7 7 7 7 6 6 6 6 6 6 5
11 12 13 14 13 13 13 13 13 14 14 13 13 12 11 10 9 9 8 7 7 7 7 7 7 8 8 7 7 7 8 8 9 8 8 8 8 7 7 7 7 8 7
10 12 13 15 14 13 13 14 14 14 14 14 13 12 11 11 10 10 9 8 8 8 7 7 7 8 8 9 9 9 9 9 9 9 9 9 8 8 8 8 8 8 8
10 11 13 14 14 14 14 14 14 15 16 15 14 13 12 11 11 10 10 10 9 9 9 9 8 8 9 9 10 10 10 10 10 10 9 9 9 9 9 9 10 10 10
11 12 13 14 14 14 15 15 15 15 16 16 15 13 12 10 10 11 11 10 10 9 9 9 9 9 9 10 10 11 11 11 10 11 11 11 11 11 10 11 11 12 11
11 13 13 13 15 15 15 16 16 16 16 16 15 14 13 12 11 11 10 11 10 10 10 9 9 9 10 10 10 11 11 11 11 12 12 12 12 12 12 13 13 13 13
11 13 14 14 14 15 15 15 16 16 16 16 15 14 13 12 11 11 11 11 10 10 9 9 9 9 9 10 10 10 10 11 12 11 12 13 13 13 14 14 13 14 14
12 13 14 14 15 15 14 15 15 15 16 16 15 14 14 13 12 11 11 11 11 10 10 9 9 9 9 10 10 10 10 11 12 13 13 13 14 14 15 14 14 14 15
12 13 14 14 14 15 15 14 14 14 15 15 15 14 14 13 12 11 11 11 11 10 10 9 9 9 9 9 10 10 11 11 12 13 14 14 14 15 15 14 15 15 15
13 14 14 15 14 14 15 15 15 15 14 14 13 13 13 13 12 11 11 11 11 10 9 9 9 9 8 8 9 10 11 11 12 13 14 14 14 15 15 15 16 17 17
13 14 15 15 14 14 14 15 15 15 14 13 13 13 13 12 11 10 10 11 11 10 10 10 9 9 8 8 8 9 9 10 11 11 12 13 14 15 15 16 17 17 17
12 13 14 15 15 14 14 14 14 14 13 13 13 12 12 12 11 10 10 11 10 10 9 9 9 8 8 8 8 8 8 9 9 10 11 13 13 14 15 16 16 17 17
12 12 14 16 15 14 14 14 14 13 13 13 12 12 11 12 11 10 9 10 10 10 9 8 8 8 8 8 8 8 8 8 8 9 10 10 11 11 12 13 15 16 17
12 12 14 16 15 15 15 14 14 13 13 13 12 12 11 11 10 10 9 9 9 9 8 8 8 8 8 8 8 8 8 8 8 9 9 9 10 10 11 12 14 15 15
11 12 13 15 15 14 14 14 14 14 13 13 13 12 11 10 10 9 9 9 8 8 8 7 7 7 7 7 7 7 8 8 9 9 9 9 10 10 11 12 13 14 15
12 12 12 13 14 14 13 13 13 13 13 13 13 12 11 10 9 8 8 8 8 8 7 7 6 6 6 6 7 7 8 8 8 8 8 9 10 11 11 11 12 13 14

GEFSSE_500_meanwind_168.txt.gz
Wind_Speed
4 5 5 5 5 5 5 6 6 7 7 7 7 8 8 8 9 9 9 8 8 8 9 9 9 9 9 9 9 9 8 8 8 8 8 8 8 8 8 8 8 8 8
5 5 5 6 5 5 5 6 6 7 7 7 7 8 8 8 8 8 8 8 8 8 9 8 8 8 8 8 8 8 8 8 7 7 7 7 7 7 8 8 8 8 7
6 6 6 6 6 6 6 6 7 7 7 7 7 7 7 7 7 8 8 8 8 8 8 7 7 7 7 7 7 7 7 7 7 6 6 6 6 7 7 8 8 8 8
7 7 7 7 7 7 7 7 7 7 7 8 7 7 7 7 7 7 7 7 7 7 7 7 6 6 6 6 6 6 6 5 6 5 5 5 6 7 7 7 7 7 7
7 8 8 8 8 8 8 7 8 8 8 8 8 7 7 7 6 6 6 6 6 6 6 6 5 5 4 4 4 4 5 4 5 5 5 5 5 6 6 6 6 6 6
8 9 9 9 9 9 9 8 9 9 8 8 8 7 7 7 6 6 5 5 5 5 5 5 4 4 3 3 3 3 3 4 4 4 4 4 4 4 5 5 5 4 5
9 10 10 11 10 10 9 9 9 9 9 9 9 8 7 7 6 6 6 5 5 4 4 4 4 3 3 3 3 3 3 3 3 3 3 3 3 3 3 3 3 3 4
9 11 11 11 11 11 10 10 10 10 10 10 9 9 8 7 7 6 6 5 4 4 4 4 3 4 3 3 3 2 2 2 2 2 2 2 2 2 2 2 2 2 2
10 10 11 11 12 11 11 11 11 10 10 10 10 10 9 8 8 7 7 6 5 5 4 4 4 4 4 4 4 3 3 3 3 2 2 2 1 0 0 0 0 1 1
11 11 11 11 12 11 11 11 11 11 10 11 11 11 10 9 8 8 7 6 6 5 5 5 5 5 5 5 5 5 4 4 4 4 3 3 3 2 2 2 1 1 2
11 11 12 12 12 12 11 12 12 12 12 12 12 11 11 10 9 9 8 7 6 6 6 6 6 6 6 6 6 6 6 5 5 5 5 4 4 4 3 3 3 3 3
12 12 13 13 13 13 13 13 13 13 12 13 13 12 12 11 10 10 9 8 7 6 6 7 7 7 7 7 7 7 7 6 6 6 6 6 6 6 5 5 5 5 5
12 12 13 14 14 14 14 14 13 13 13 13 14 13 12 12 12 11 10 10 9 8 7 7 7 7 7 8 8 8 8 8 8 8 8 7 7 7 7 6 6 6 7
12 13 13 14 15 15 15 15 14 14 14 14 14 14 13 12 12 11 10 10 10 9 9 8 8 8 8 8 9 9 8 9 9 9 9 9 8 8 8 8 8 8 8
12 13 13 14 15 16 16 15 15 15 15 15 15 15 14 12 12 11 11 10 10 10 9 8 8 8 8 8 8 8 8 8 8 9 10 9 9 9 9 9 8 9 8
12 13 14 14 14 16 16 15 15 15 15 15 15 14 14 13 12 12 11 11 11 10 10 9 9 9 9 9 9 9 9 9 9 9 9 9 10 10 10 10 10 9 9
13 13 14 14 14 15 15 15 15 15 14 14 14 14 14 14 13 12 11 10 10 10 10 10 10 9 9 9 9 9 9 9 10 10 10 10 10 10 11 11 11 11 11
12 13 14 13 14 15 15 14 15 16 15 14 14 15 14 13 13 13 12 11 11 10 10 10 9 8 8 8 9 9 9 9 10 10 10 11 11 11 11 11 11 12 11
11 12 13 14 13 15 15 14 14 15 15 14 14 14 14 13 13 12 12 11 10 10 10 10 9 8 9 9 8 8 9 9 9 9 10 10 10 10 10 11 12 12 13
12 13 14 14 13 13 15 15 14 14 14 13 13 13 13 13 13 12 11 11 10 10 10 10 10 9 9 8 8 8 8 9 9 9 9 9 10 10 11 12 12 12 13
12 13 13 13 13 12 13 14 14 14 14 13 12 12 12 12 12 11 11 10 10 9 9 9 9 9 8 7 7 7 8 8 9 9 9 9 9 10 10 11 12 12 12
13 13 13 13 12 12 11 13 14 14 13 12 12 11 12 12 12 11 11 10 9 8 8 8 8 8 8 8 7 7 8 8 8 8 8 9 9 10 10 11 11 11 12
13 13 13 13 13 13 13 12 12 12 12 12 11 11 11 11 11 10 10 10 9 8 8 8 7 7 7 7 7 8 8 7 8 8 8 8 9 9 10 10 11 11 11
13 13 13 13 13 13 14 12 11 11 11 12 11 11 11 11 11 10 10 9 9 9 8 8 8 7 7 7 7 7 7 7 7 8 8 8 9 9 10 9 9 10 10
12 13 13 13 13 13 13 12 12 11 11 10 10 9 10 11 11 10 9 8 8 7 7 7 7 7 7 7 6 6 7 7 7 8 8 8 9 9 9 9 9 9 10
12 12 12 12 13 13 12 12 12 11 11 10 10 10 9 10 10 9 9 8 7 6 6 6 6 6 6 5 6 6 7 7 7 8 8 8 9 9 9 10 9 10 10

GEFSSE_500_meanwind_174.txt.gz
Wind_Speed
3 3 4 4 4 4 4 4 4 4 4 4 5 5 5 5 6 6 6 6 7 8 8 8 8 8 8 8 8 8 8 8 8 8 8 8 8 8 8 9 8 9 8
2 3 3 3 3 4 4 4 4 4 3 3 4 4 5 5 5 5 5 6 7 8 8 8 8 8 8 8 8 8 7 7 7 7 7 7 8 8 8 8 8 8 8
2 2 3 3 3 3 4 4 4 3 3 3 3 4 4 4 4 4 5 6 6 7 7 7 7 7 7 7 6 6 6 6 6 6 7 7 7 8 8 8 8 8 8
2 3 3 3 3 4 4 4 4 4 3 3 3 4 4 4 4 4 4 5 6 6 6 6 5 5 5 5 5 5 5 5 5 6 6 6 6 7 7 7 7 7 8
3 4 4 4 4 4 4 5 4 4 4 3 3 3 4 3 3 3 4 4 5 4 4 4 4 3 4 4 3 4 4 4 4 4 5 5 6 6 6 6 7 7 7
4 4 4 5 5 5 5 5 5 5 5 4 4 4 4 4 3 3 3 3 3 3 3 3 2 2 2 2 2 2 3 3 3 3 3 3 4 4 5 5 5 6 6
5 5 6 6 6 6 5 6 6 6 6 5 5 5 5 4 4 3 3 3 3 3 3 2 2 1 1 1 1 1 1 1 1 2 2 2 3 3 3 4 4 5 5
5 6 6 7 7 7 7 7 7 7 7 6 6 6 6 5 5 4 3 3 3 3 2 2 2 2 1 1 1 1 1 0 0 0 1 1 1 1 2 2 3 3 3
6 7 7 7 7 8 8 8 8 8 8 7 7 7 7 7 6 5 5 4 3 3 3 4 3 3 2 2 2 2 1 1 1 1 1 1 1 1 1 1 1 2 2
7 7 8 7 7 8 8 9 10 9 9 8 8 8 8 7 7 6 6 5 4 4 4 4 4 3 3 3 2 2 2 2 2 2 2 2 2 2 1 1 1 0 0
8 9 9 8 8 8 9 9 10 10 10 9 9 9 8 8 7 7 6 6 5 5 4 4 4 4 4 4 3 3 3 3 3 3 3 4 3 3 2 2 2 1 1
9 9 9 9 9 9 9 10 10 11 10 9 9 10 9 8 8 8 7 6 6 5 5 5 5 5 4 4 4 4 4 4 4 3 4 4 4 3 3 3 3 3 2
9 9 9 9 10 10 10 10 10 10 10 9 9 10 10 9 8 8 8 8 7 6 6 5 5 5 4 4 4 5 5 5 5 4 4 4 5 4 4 4 4 4 4
9 9 10 10 10 11 11 12 11 11 11 10 10 9 10 10 9 9 9 9 8 7 7 6 6 5 5 5 5 5 6 5 5 5 5 5 5 5 5 5 5 5 5
9 9 9 10 11 12 12 13 13 12 11 11 11 11 10 10 10 10 10 9 9 9 8 7 7 6 5 5 5 5 6 7 5 5 5 5 5 6 6 6 6 6 6
9 9 10 10 11 12 12 12 12 13 12 12 12 12 12 11 10 10 10 10 9 9 8 7 7 7 7 6 6 5 6 6 7 7 6 6 7 7 7 6 6 7 7
9 9 10 10 11 11 12 12 13 13 13 12 12 13 13 12 11 11 11 10 10 9 8 8 8 7 7 6 6 6 5 6 6 7 7 6 7 7 7 7 7 7 8
9 8 10 10 10 11 11 12 13 13 13 13 12 12 12 12 12 12 11 11 10 9 8 8 7 7 7 6 6 6 5 5 5 6 7 6 6 7 7 7 7 8 8
9 9 10 10 9 10 11 11 12 13 13 13 12 12 12 12 12 12 12 11 10 9 8 8 8 7 7 7 6 6 6 6 6 6 7 7 7 8 8 8 8 8 9
9 9 10 10 10 10 10 11 12 13 13 13 12 12 12 12 13 12 11 11 11 10 9 9 8 7 7 7 7 7 6 6 6 6 6 7 7 8 8 8 8 8 9
9 9 10 10 10 9 9 9 11 13 13 13 13 12 12 12 12 13 12 12 11 11 10 9 8 8 7 7 7 6 6 6 6 6 7 7 7 7 8 8 9 8 8
9 10 10 10 10 10 10 9 10 12 13 13 12 12 12 13 12 12 12 12 12 11 10 9 9 8 8 8 7 7 7 6 6 6 6 6 7 7 7 7 8 8 9
9 10 11 11 11 11 11 10 10 11 12 12 12 12 12 12 13 12 12 12 11 11 10 10 9 8 8 7 7 7 7 7 6 6 5 6 6 6 6 6 7 7 8
9 10 11 11 12 12 12 11 11 11 11 12 12 12 11 11 12 12 12 12 12 11 10 9 9 8 7 6 6 6 6 6 6 5 5 5 5 6 6 7 7 7 7
10 10 11 11 12 12 12 12 11 11 12 12 12 12 11 11 12 13 12 12 12 10 10 9 8 7 6 6 6 6 6 5 5 5 4 4 4 5 5 6 7 6 7
11 10 11 11 12 13 12 12 12 11 12 12 12 12 11 11 11 12 12 12 12 11 10 9 8 7 6 6 5 5 5 5 5 5 4 4 5 5 5 6 6 6 6